www.pogodaiklimat.ru

Погода и климат >> Архив погоды >> Россия >> Ростовская область >> Константиновск


ПОГОДА в Константиновске

  • Прогноз погоды в Константиновске
  • Монитор погоды в Константиновске

АРХИВ ПОГОДЫ в Константиновске

Время (UTC), дата Ветер
(напр.,м/с)
 
Видим.   Явления Облачность Т
(С)
Тd
(С)
f
(%)
Тe
(С)
Тes
(С)
Комфортность P
(гПа)
Po
(гПа)
Тmin
(С)
Tmax
(С)
R
(мм)
R24
(мм)
S
(см)
09 18.05 В 5-10
{12}
10 км 4/0
[Ac trans]
+23.1 +8.2 38 +24 +31 комфорт 1013.6 1006.4
12 18.05 В 4
{11}
10 км 3/0
[Ci fib]
+24.2 +7.4 34 +24 +32 комфорт 1012.4 1005.2
15 18.05 СВ 3
{10}
10 км 3/0
[Ci fib]
+23.3 +7.8 37 +24 +26 комфорт 1011.3 1004.1 +24.5
18 18.05 СВ 3 10 км 4/0
[Ci fib]
+19.7 +5.8 40 +21 +21 комфорт 1011.8 1004.5
21 18.05 СВ 3 10 км 6/0
[Ci sp]
+16.3 +6.0 50 +16 +16 1011.5 1004.1
00 19.05 СВ 3 10 км 8/0
[Ac trans Ci sp]
+15.6 +4.8 49 +15 +15 1011.3 1003.9
03 19.05 В 3 10 км ясно +15.5 +5.8 52 +15 +16 1011.7 1004.3 +14.9
06 19.05 В 4 10 км 8/0
[Ci fib]
+21.1 +5.4 36 +22 +27 комфорт 1012.4 1005.2
09 19.05 В 3 10 км 6/0
[Ci fib]
+24.4 +4.0 27 +24 +37 комфорт 1012.6 1005.4
12 19.05 СВ 3 10 км 4/0
[Ci fib]
+25.3 +4.7 26 +25 +34 комфорт 1012.6 1005.5
15 19.05 ЮВ 1 10 км 8/0
[Ci sp]
+24.7 +6.7 32 +25 +27 комфорт 1012.9 1005.7 +25.7
18 19.05 СВ 1 10 км ясно +16.3 +9.0 62 +17 +17 1013.9 1006.5
21 19.05 СВ 3 10 км 6/6 600 м
[Cu hum]
+19.4 +5.5 40 +20 +20 1013.9 1006.6
00 20.05 СВ 2 10 км 4/4 600 м
[Cu hum]
+19.4 +5.5 40 +21 +21 комфорт 1015.1 1007.8
03 20.05 СВ 2 10 км ясно +16.7 +3.0 40 +17 +18 1016.5 1009.2 +15.1
06 20.05 СВ 2 10 км 3/0
[Ci fib]
+21.1 +7.3 41 +22 +32 комфорт 1017.6 1010.3
09 20.05 СВ 3 10 км 4/0
[Ci fib]
+23.8 +6.8 34 +24 +38 комфорт 1018.2 1011.0
12 20.05 В 2 10 км 4/0
[Ci fib]
+24.4 +4.3 27 +24 +35 комфорт 1018.2 1011.0
15 20.05 В 1 10 км 3/0
[Ci fib]
+23.3 +5.4 31 +23 +26 комфорт 1018.2 1011.0 +24.6
18 20.05 СВ 1 10 км 3/0
[Ci fib]
+16.0 +5.0 48 +17 +17 1019.3 1011.9
21 20.05 В 2 10 км ясно +14.6 +3.8 48 +14 +14 1019.8 1012.3
00 21.05 В 2 10 км ясно +12.1 +1.7 49 +11 +11 1020.0 1012.5
03 21.05 В 1 10 км ясно +13.8 +2.5 46 +14 +16 1020.9 1013.4 +9.7
06 21.05 Ю 2 10 км ясно +18.7 +5.6 42 +20 +30 1021.2 1013.8
09 21.05 ЮВ 3 10 км 3/0
[Ci fib]
+23.5 +3.3 27 +23 +37 комфорт 1020.7 1013.5
12 21.05 В 3 10 км 6/0
[Ci sp]
+24.7 +3.5 25 +24 +33 комфорт 1019.4 1012.2
15 21.05 В 2 10 км 8/0
[Ci sp]
+23.6 +6.0 32 +24 +25 комфорт 1018.3 1011.1 +25.0
18 21.05 СВ 2 10 км 8/0
[Ci sp]
+17.1 +6.7 50 +17 +17 1018.3 1010.9
21 21.05 В 2 10 км ясно +16.0 +5.1 48 +16 +16 1017.8 1010.4
00 22.05 В 3 10 км 6/0
[]
+14.8 +4.7 51 +14 +14 1017.0 1009.6
03 22.05 В 3 10 км 4/0
[Ci fib]
+13.7 +7.9 68 +13 +14 1017.4 1009.9 +13.4
06 22.05 ЮВ 4
{10}
10 км 8/0
[Ac trans Ci sp]
+18.6 +3.2 36 +19 +23 1016.1 1008.7
09 22.05 ЮВ 5
{11}
10 км 9/0
[Ac trans Ci sp]
+21.2 +1.1 26 +21 +27 комфорт 1014.5 1007.2
12 22.05 Ю 3 10 км 10/6 600 м
[Cu Sc Ac As]
+21.2 +8.0 43 +22 +23 комфорт 1013.3 1006.1
15 22.05 Ю 3 10 км 10/8 600 м
[Cu Sc Ac As]
+17.5 +13.1 75 +18 +18 1012.6 1005.3 +23.0
18 22.05 ЮЗ 2 4000 м в посл. час ливневой дождь 10/10 600 м
[Cu Sc]
+16.1 +14.6 91 +16 +16 1012.5 1005.2
21 22.05 ЮВ 1 4000 м дымка ясно +14.2 +13.1 93 +14 +14 1011.8 1004.4
00 23.05 Ю 2 4000 м дымка 9/0
[Ac trans]
+14.6 +13.2 91 +14 +14 1011.5 1004.1
03 23.05 ЮЗ 2 4000 м дымка 8/6 600 м
[Cu Sc Ac trans]
+14.7 +13.2 91 +14 +15 1010.6 1003.3 +14.0 3
06 23.05 ЮЗ 2 10 км 10/8 600 м
[Cu Sc Ac trans]
+17.0 +14.6 86 +17 +18 1010.4 1003.1
09 23.05 ЮЗ 3 10 км гроза без осадков н/о +18.5 +13.3 72 +19 +21 1010.3 1003.0 250
12 23.05 ЮЗ 4 10 км {гроза} 8/8 600 м
[Cu Sc]
+18.9 +12.6 67 +20 +21 1009.4 1002.1
15 23.05 З 2
{12}
10 км 10/10 600 м
[Cu Sc]
+16.9 +12.7 76 +17 +17 1008.9 1001.6 +21.5
18 23.05 З 1 10 км {ливн. осадки} 10/10 600 м
[Cu Sc]
+15.6 +13.6 88 +16 +16 1009.3 1002.0
21 23.05 ЮЗ 2 4000 м дымка 8/8 600 м
[Cu Sc]
+14.9 +13.2 90 +15 +15 1009.7 1002.4
00 24.05 штиль 0 4000 м дымка 3/3 600 м
[Cu Sc]
+12.8 +11.6 92 +12 +12 1009.1 1001.7
03 24.05 З 1 4000 м дымка ясно +13.5 +12.6 94 +14 +15 1009.4 1002.1 +12.7 0.3
06 24.05 З 1 10 км ясно +20.2 +13.8 67 +24 +36 комфорт 1009.7 1002.5
09 24.05 З 3 10 км 3/3 600 м
[Cu hum]
+23.5 +11.8 48 +25 +36 комфорт 1009.7 1002.5
12 24.05 ЮЗ 2 10 км 4/4 600 м
[Cu hum]
+25.5 +11.1 40 +27 +34 жарко 1009.6 1002.5
15 24.05 Ю 2 10 км 8/3 600 м
[Cu hum Ci fib]
+25.3 +9.4 37 +26 +27 жарко 1009.0 1001.9 +26.2
18 24.05 штиль 0 10 км 8/0
[Ac trans Ci sp]
+18.1 +14.4 79 +18 +18 1009.9 1002.6
21 24.05 штиль 0 4000 м дымка 4/0
[Ci sp]
+15.0 +12.9 87 +15 +15 1010.3 1003.0
00 25.05 В 1 4000 м дымка 6/0
[Ci sp]
+15.4 +13.5 88 +16 +16 1010.1 1002.8
03 25.05 В 2 10 км 8/0
[Ac trans Ci sp]
+16.3 +13.1 81 +16 +17 1010.0 1002.6 +14.6
06 25.05 В 3 10 км 8/8 600 м
[Cu Sc Ac trans Ci sp]
+22.7 +14.7 61 +26 +28 жарко 1009.3 1002.2

 

Местоположение метеостанции Константиновск (Ростовская область, Россия): широта 47.58 долгота 41.10 высота над уровнем моря 62 м.

В архиве по умолчанию представлена погода в Константиновске за последнюю неделю. Архивные данные за месяц целиком и за предыдущие месяцы, начиная с января 2011 года, Вы можете получить, выбрав интересующий диапазон дат из раскрывающегося списка и нажав кнопку "Ввод!".


*Определитесь, кто Вы:
робот инопланетянин человек

Внимание! Время в таблицах - всемирное. Для получения местного времени необходимо прибавить поправку, которая равна 3 ч.

Смотрите также архив погоды в соседних городах и на ближайших метеорологических станциях:

Погода в Семикаракорске (Ростовская область, Россия) (21 км)
Погода в Шахтах (Ростовская область, Россия) (64 км)
Погода в Белой Калитве (Ростовская область, Россия) (75 км)
Погода в Цимлянске (Ростовская область, Россия) (77 км)
Погода в Аэропорту Платов (Ростовская область, Россия) (89 км)
Погода в Каменск-Шахтинском (Ростовская область, Россия) (100 км)
Погода в Зерноград (Ростовская область, Россия) (100 км)
Погода в Ростове-на-Дону (Ростовская область, Россия) (102 км)
Погода в Морозовске (Ростовская область, Россия) (103 км)
Погода в Зимовниках (Ростовская область, Россия) (114 км)

Пояснения к столбцам:

Ветер - указаны скорость ветра в м/с - средняя за 10 мин, порывы в срок и между сроками (в фигурных скобках) и направление, откуда дует ветер: С - северный, СВ - северо-восточный, В - восточный, ЮВ - юго-восточный, Ю - южный, ЮЗ - юго-западный, З - западный, СЗ - северо-западный.
Видимость - горизонтальная дальность видимости в метрах или километрах. При видимости от 1 до 10 км при отсутствии осадков обычно наблюдается дымка, при ухудшении видимости до 1 км и менее - туман. В сухую погоду видимость может ухудшаться дымом, пылью или мглою.
Явления - указаны атмосферные явления, наблюдавшиеся в срок или в последний час перед сроком; фигурными скобками обозначены явления, наблюдавшиеся между сроками (за 1-3 часа до срока); квадратными скобками обозначены град или гололедные отложения с указанием их диаметра в мм.
Облачность - указаны через наклонную черту общая и нижняя облачность в баллах и высота нижней границы облаков в метрах; квадратными скобками обозначены формы облаков: Ci - перистые, Cs - перисто-слоистые, Cc - перисто-кучевые, Ac - высококучевые, As - высокослоистые, Sc - слоисто-кучевые, Ns - слоисто-дождевые, Cu - кучевые, Cb - кучево-дождевые. Подробнее классификацию облаков см. в Атласе облаков (PDF).
T - Температура воздуха - температура, измеренная на высоте 2 м над землей.
Td - Температура точки росы - температура, при понижении до которой содержащийся в воздухе водяной пар достигнет насыщения.
f - Относительная влажность воздуха - влажноcть воздуха, измеренная на высоте 2 м над землей.
Te - Эффективная температура - температура, которую ощущает одетый по сезону человек в тени. Характеристика душности погоды. При расчете учитывается влияние влажности воздуха и скорости ветра на теплоощущения человека.
Tes - Эффективная температура на солнце - температура, которую ощущает человек, с поправкой на солнечный нагрев. Характеристика знойности погоды. Зависит от высоты солнца над горизонтом, облачности и скорости ветра. Ночью, в пасмурную погоду, а также при ветре 12 м/с и более поправка равна нулю.
P - Атмосферное давление - приведенное к уровню моря атмосферное давление.
Po - Атмосферное давление - измеренное на уровне метеостанции атмосферное давление.
Tmin - Минимальная температура - минимум температуры воздуха на высоте 2 м над землей.
Tmax - Максимальная температура - максимум температуры воздуха на высоте 2 м над землей.
R - Количество осадков - Количество выпавших осадков за период времени, мм. При наведении курсора мыши на число - период времени, за который выпало указанное количество осадков.
R24 - Количество осадков - Количество выпавших осадков за 24 часа, мм.
S - Снежный покров - Высота снежного покрова, см. При наведении курсора мыши на число - состояние снежного покрова и степень покрытия местности в баллах.